Wind_Speed
20 22 25 27 29 30 32 35 37 40 43 44 44 46 48 51 53 55 59 59 58 58 64 65 66 67 68 66 66 70 68 66 64 63 62 64 67 64 64 64 62 58 54 49 45 41 44 49 43 42 40 36 34 35
17 19 21 23 24 25 26 29 32 34 37 37 38 39 41 43 45 47 48 50 51 52 54 54 55 55 57 56 58 60 58 57 55 54 55 58 59 55 52 50 49 45 42 42 38 40 42 40 37 35 32 31 31 30
13 15 17 19 21 22 24 26 27 30 32 33 34 35 37 39 40 42 42 43 44 47 47 47 49 48 49 49 49 49 47 46 47 47 48 48 47 45 40 38 38 36 35 35 35 37 36 35 31 31 29 29 28 28
12 14 16 18 20 22 23 24 26 27 28 29 30 32 33 35 37 37 38 38 40 41 42 42 42 43 40 40 41 40 40 39 42 41 40 37 34 34 34 34 32 32 31 34 33 32 30 28 26 26 27 26 25 25
13 14 16 17 18 21 22 22 24 24 25 27 28 29 30 31 32 32 33 35 34 35 36 34 33 31 32 35 35 35 36 37 34 31 31 32 31 30 29 29 29 30 29 28 27 27 29 28 27 26 25 25 25 27
14 15 17 18 18 20 21 21 23 24 25 26 27 28 28 28 28 28 28 28 30 30 29 30 32 33 33 32 30 29 28 27 24 26 27 26 27 29 29 30 27 27 28 28 27 28 26 26 25 25 25 26 27 28
17 17 17 18 20 21 21 22 22 23 24 26 27 27 28 28 29 29 30 29 29 29 31 31 29 29 29 30 29 25 22 20 24 24 28 28 28 29 28 27 26 28 29 28 27 26 25 25 27 28 29 30 30 28
18 19 19 20 21 20 21 21 23 24 24 25 25 26 27 27 27 27 27 28 28 28 27 26 25 24 22 21 20 20 23 25 27 26 26 27 28 25 23 23 25 25 25 25 25 26 27 28 29 30 30 30 29 28
20 20 21 22 22 23 24 23 23 23 23 23 24 24 23 24 25 27 27 27 27 28 27 25 24 24 25 24 25 26 25 24 23 25 26 25 23 23 22 23 24 25 26 26 26 27 28 30 31 32 31 30 30 32
21 21 22 22 22 22 23 23 23 23 22 22 22 22 23 24 25 26 26 27 27 25 24 23 28 29 29 26 24 23 22 22 23 24 23 22 22 22 23 24 25 25 25 27 28 30 30 31 32 31 31 33 34 34
22 22 22 23 22 23 24 24 23 23 23 22 23 24 24 24 25 26 25 24 27 30 30 29 27 24 23 22 22 22 22 21 20 19 19 20 21 21 21 22 23 24 26 27 28 30 31 32 34 35 35 36 36 37
23 23 23 23 23 24 23 23 23 23 24 26 26 25 24 25 27 29 30 31 31 31 30 29 29 28 26 24 22 22 21 20 19 19 19 20 21 23 24 25 26 27 28 29 31 32 33 34 36 37 39 39 39 39
23 23 24 24 24 24 23 23 23 23 24 26 29 30 31 31 32 33 33 33 32 31 30 28 27 25 24 22 20 18 17 17 17 18 20 21 21 23 23 24 25 27 29 31 33 34 36 36 38 39 39 40 40 41
24 24 23 23 22 22 22 23 26 27 28 30 31 32 32 31 31 31 31 30 29 29 28 26 23 22 20 18 17 18 17 16 17 17 18 18 19 20 22 23 25 28 30 32 33 34 35 36 38 39 40 41 42 43
23 23 23 22 22 21 21 24 27 29 31 31 29 30 32 33 34 34 33 31 29 28 25 23 22 21 20 20 18 18 16 16 16 16 17 18 20 22 25 27 28 29 31 32 33 33 33 36 38 39 40 40 41 42
20 20 21 22 22 21 22 22 23 25 27 30 31 33 33 33 32 31 30 29 27 26 25 24 22 21 19 17 16 15 15 15 16 16 18 20 21 22 24 25 27 28 30 31 30 31 33 36 39 40 41 43 44 44
17 18 19 20 21 21 20 21 23 23 25 28 31 31 31 30 29 27 25 24 22 21 21 22 21 19 17 16 16 16 16 16 16 17 19 19 20 21 24 25 27 28 29 30 29 30 31 31 32 33 34 35 37 38
16 17 18 20 22 22 22 22 19 24 27 29 30 30 30 29 28 26 23 20 20 21 21 21 19 18 16 17 17 16 16 15 16 17 18 19 21 23 24 24 24 25 26 28 27 26 25 25 26 27 28 29 30 32
16 17 19 20 20 21 21 21 24 29 31 32 31 29 26 25 25 24 23 23 23 22 20 18 18 19 18 17 17 16 15 15 16 18 19 21 23 24 24 23 24 24 24 24 23 22 22 22 23 24 25 25 27 28
17 19 19 20 20 20 22 24 27 30 29 30 29 27 24 22 22 20 19 18 18 18 18 19 18 18 19 18 16 15 15 16 18 19 21 22 24 25 23 22 23 22 22 22 21 20 20 20 21 22 23 24 25 26
15 19 20 19 19 21 25 29 30 30 28 26 24 23 23 23 21 20 19 19 18 19 19 19 19 19 18 17 17 17 17 19 20 21 22 23 24 26 26 24 22 21 21 20 20 20 19 19 19 20 22 23 25 26
13 15 18 20 21 22 24 26 26 26 25 22 23 24 26 25 24 23 21 21 20 21 21 21 20 19 18 19 19 19 19 20 21 23 24 25 25 27 26 25 24 23 21 21 19 20 20 21 21 21 22 23 24 25
10 13 14 16 20 22 24 25 25 26 27 27 28 27 27 26 26 25 23 22 22 22 22 22 21 21 21 21 22 22 23 24 24 25 26 26 27 28 28 28 25 25 24 22 21 20 20 20 22 22 22 23 23 24
10 12 14 15 16 18 21 24 25 26 27 28 28 28 27 26 25 25 24 24 25 25 25 25 25 25 24 25 26 26 27 27 27 28 28 29 29 29 30 29 27 26 25 25 23 22 21 21 22 23 23 23 24 25
10 12 14 15 17 19 20 22 25 26 27 27 27 28 29 29 29 30 30 28 28 27 28 28 29 29 30 30 30 30 30 30 31 31 31 31 30 30 30 30 28 28 26 25 26 25 24 23 23 24 24 25 24 25
8 10 13 16 18 19 20 22 23 25 27 29 29 30 30 31 32 32 32 32 33 33 33 34 34 34 34 34 34 34 33 33 33 33 33 33 33 32 31 30 30 29 28 27 26 27 27 26 26 25 26 27 28 28
7 9 11 12 15 17 20 23 25 26 28 29 29 31 32 33 34 34 35 36 36 36 36 36 36 36 36 36 35 35 35 35 35 34 35 36 35 35 32 30 30 30 29 28 27 27 27 28 28 28 28 28 29 30
9 10 10 12 14 16 18 19 21 23 25 27 28 30 31 32 32 33 35 36 36 37 36 36 36 36 36 36 35 34 35 37 37 36 36 35 35 34 32 31 30 29 29 29 28 28 28 29 29 29 29 29 30 31
10 10 11 12 13 14 16 17 19 20 21 23 25 26 27 26 27 29 31 32 33 34 33 33 33 34 35 36 37 37 38 37 36 35 34 34 33 32 31 30 29 29 29 29 29 29 28 29 29 29 29 30 31 31
11 11 11 13 14 16 17 18 19 20 21 22 24 25 26 26 27 29 30 31 31 32 33 34 35 36 37 37 36 36 35 35 34 33 32 32 32 31 30 30 29 29 29 29 29 28 28 28 28 29 29 30 30 31
13 13 13 14 15 16 18 19 20 20 22 24 25 26 27 28 29 30 31 31 32 32 32 33 34 34 34 34 33 33 32 32 31 31 32 32 30 29 29 29 29 29 29 28 28 27 27 27 28 28 29 29 30 30
15 15 16 17 17 18 17 18 20 21 21 22 23 24 24 26 27 27 28 28 29 30 31 32 32 32 31 30 30 30 30 30 29 28 29 29 28 28 28 27 26 26 27 26 26 26 26 27 28 28 29 29 29 30
17 17 17 18 18 18 19 20 20 21 22 22 23 24 24 25 25 25 24 26 27 28 30 30 28 27 27 27 27 27 27 26 26 26 25 24 24 25 25 25 26 26 25 26 26 26 26 27 27 28 28 28 28 28
Wind_Direction
237 231 230 228 229 227 225 223 222 222 222 224 224 224 225 226 227 228 230 232 234 234 237 239 241 244 246 250 252 253 255 257 257 256 258 257 257 258 257 260 262 263 263 263 260 255 246 248 251 254 253 252 247 249
230 222 218 219 221 221 220 218 215 213 214 217 220 220 220 222 223 224 226 228 229 231 235 237 240 243 244 245 246 248 249 252 253 255 254 253 255 259 257 256 258 259 255 250 249 244 243 247 248 249 245 246 251 254
213 209 207 204 204 207 207 205 206 206 206 208 211 212 212 213 215 217 219 222 225 229 231 233 235 239 241 241 244 246 247 248 248 247 248 249 250 253 257 253 249 246 240 237 236 234 237 240 239 237 240 244 250 251
188 187 187 189 189 189 192 193 195 197 199 200 201 203 204 206 209 210 212 215 219 223 225 229 231 234 236 239 241 241 242 242 241 241 244 245 242 242 239 238 231 229 225 223 225 229 234 234 234 239 244 246 242 239
166 168 170 172 175 180 176 182 186 185 187 189 191 193 195 199 201 203 205 210 213 217 219 223 226 228 228 229 230 230 229 232 235 235 233 230 229 227 226 222 218 217 218 217 220 221 226 229 233 238 235 235 237 239
149 152 155 158 161 166 165 173 176 177 179 180 182 185 188 190 193 196 201 203 206 208 209 210 211 212 216 218 220 222 225 225 219 221 222 219 216 215 211 210 207 209 210 213 217 223 228 234 236 234 234 239 238 236
142 143 147 152 152 156 159 163 166 166 170 173 176 179 181 182 184 187 190 190 194 196 199 202 202 205 209 210 209 210 209 208 210 208 205 205 207 205 202 202 205 210 214 216 218 225 229 229 228 230 236 238 240 245
135 138 139 144 143 149 149 153 157 161 164 166 169 172 175 178 180 181 183 187 191 191 195 194 196 193 195 195 191 185 187 192 195 196 195 197 199 199 201 205 212 215 219 222 224 228 227 228 231 235 237 241 244 252
131 132 135 135 136 138 140 145 149 153 158 161 165 169 171 173 175 179 183 183 184 187 184 187 187 179 174 177 180 183 185 185 184 187 192 194 195 200 205 210 214 218 223 226 228 229 230 231 235 240 243 247 253 258
130 130 131 132 135 138 141 145 150 154 157 160 163 164 165 168 169 174 175 177 182 178 170 172 173 175 175 173 170 171 173 177 182 187 192 197 206 210 212 216 222 227 230 231 231 233 236 237 242 246 249 253 257 261
132 131 130 132 135 138 142 145 149 152 153 154 153 155 157 161 164 164 164 167 165 165 168 168 165 164 162 161 164 169 174 181 186 191 196 202 210 216 224 231 236 239 239 239 239 239 242 245 248 251 254 256 258 261
131 132 133 136 139 141 142 143 144 145 146 147 152 152 151 154 156 156 162 164 163 160 157 154 156 159 161 162 168 174 179 183 187 192 202 211 218 224 229 232 234 238 239 242 245 248 250 252 254 255 257 259 261 263
135 136 139 142 144 142 142 142 141 143 146 148 148 148 149 152 156 159 160 159 154 151 151 153 156 159 160 163 169 177 187 194 199 205 213 219 224 230 234 237 241 245 249 251 254 256 257 258 259 260 260 260 261 261
136 140 143 144 144 143 145 143 142 145 148 151 151 153 154 153 152 150 147 144 142 145 148 153 156 160 165 171 180 193 194 198 204 210 218 225 233 241 246 251 253 254 255 257 259 259 260 261 261 260 260 260 260 261
146 147 148 146 146 148 151 153 153 152 155 154 153 151 149 150 149 147 146 146 149 151 154 159 162 169 176 183 187 191 198 205 213 219 229 237 244 250 254 257 260 263 264 266 266 266 265 264 263 262 261 260 259 259
151 153 151 150 152 152 155 160 160 158 156 152 153 154 153 153 153 151 153 156 159 161 163 167 173 178 183 188 194 201 209 218 226 234 241 247 252 258 263 267 270 270 271 269 268 265 261 259 258 259 258 258 258 257
149 153 152 151 150 150 153 157 157 159 153 154 157 156 158 156 155 157 158 160 162 166 172 177 181 184 189 195 204 213 222 230 239 246 251 256 262 267 274 277 279 278 279 281 278 274 270 265 262 259 256 255 254 254
150 153 153 153 152 152 157 160 155 152 154 158 160 165 164 162 163 161 160 167 173 178 183 183 185 189 199 210 219 226 234 241 247 251 258 265 271 275 279 285 286 285 284 284 281 276 271 267 264 260 256 253 252 252
153 157 156 156 159 157 156 155 155 160 164 166 170 174 172 169 168 167 173 181 185 188 190 189 196 206 214 222 229 236 241 246 251 260 266 272 278 283 288 290 293 292 291 286 280 275 273 269 266 261 258 257 256 254
158 159 159 161 162 157 154 157 165 173 176 178 178 177 175 175 178 183 189 194 198 200 200 205 213 220 226 232 239 245 246 251 257 263 271 277 284 290 294 295 297 296 295 289 282 279 274 269 263 260 257 255 254 254
173 166 161 164 166 168 168 172 179 185 189 187 184 182 181 184 188 193 196 198 204 209 214 220 225 231 236 241 244 245 249 255 263 270 277 284 291 294 298 299 300 302 300 293 285 283 276 270 266 263 260 258 257 257
183 185 175 170 172 177 182 185 187 191 193 191 192 192 194 196 198 202 206 211 215 219 224 229 233 238 241 244 246 251 257 265 272 279 284 290 292 295 297 301 302 303 301 295 287 282 280 274 272 271 268 265 263 262
186 192 197 193 184 184 189 193 194 195 195 197 201 204 207 209 210 212 216 221 226 230 234 238 241 244 248 252 256 261 265 271 277 283 289 293 294 296 299 301 301 300 299 297 293 286 280 278 275 276 275 272 270 265
195 196 196 198 201 201 199 201 204 206 208 210 213 216 219 222 225 227 231 234 237 239 243 246 250 253 257 260 264 267 271 277 282 286 289 290 291 293 294 295 296 296 295 294 292 287 283 279 277 276 277 275 275 270
209 206 206 207 206 207 211 213 214 216 219 222 224 225 226 228 230 233 236 240 245 249 251 254 256 259 262 265 269 273 277 280 285 288 289 289 288 287 288 290 291 291 290 288 286 286 283 279 277 277 275 274 273 274
233 229 227 222 219 218 217 219 221 225 227 228 229 233 235 237 239 241 244 247 250 254 257 259 262 265 269 271 274 278 281 283 286 287 285 284 284 285 287 288 287 286 285 283 282 281 281 280 278 276 276 276 275 275
260 245 242 244 241 238 232 230 229 230 231 232 234 236 239 241 242 244 247 251 254 257 260 263 266 269 273 276 278 280 280 280 279 279 280 282 283 284 283 281 281 282 281 281 280 280 279 279 279 279 279 278 279 279
273 258 250 245 244 244 246 245 244 243 243 244 244 245 247 249 251 253 255 256 259 262 265 268 270 273 275 276 277 276 276 276 276 277 278 278 279 279 280 279 278 278 279 281 281 281 279 279 279 280 281 281 280 282
294 285 271 254 244 242 244 247 249 250 250 249 251 252 254 256 259 261 262 263 264 265 267 268 269 270 270 271 270 270 271 273 275 277 278 277 277 278 279 279 279 278 278 278 279 280 279 279 280 279 280 281 281 280
291 278 273 273 268 258 251 248 247 245 246 247 248 249 251 252 254 257 258 259 260 261 261 261 263 264 265 267 269 272 274 275 276 277 278 278 279 280 281 280 280 279 278 278 278 279 280 280 281 281 282 284 285 283
297 286 276 268 265 262 260 261 259 257 254 253 253 252 253 254 254 254 256 258 259 260 262 263 263 265 267 269 272 274 275 277 278 279 279 280 282 282 282 281 280 280 280 280 279 279 279 280 282 284 286 287 287 287
300 291 283 279 273 267 264 260 258 257 257 258 258 257 256 257 258 259 260 261 262 261 262 264 266 270 274 278 278 277 277 278 279 279 280 282 283 283 282 282 282 281 280 280 280 281 282 284 286 289 292 293 293 293
299 290 286 283 281 277 272 266 262 260 258 258 258 257 257 258 260 261 262 262 261 262 263 267 270 271 272 271 271 273 275 277 278 278 279 280 279 279 277 277 278 278 279 279 279 280 282 285 287 290 291 292 294 295
Height
9886 9889 9892 9897 9901 9908 9914 9921 9928 9935 9943 9952 9961 9971 9980 9991 10001 10012 10020 10034 10047 10058 10060 10072 10081 10089 10097 10105 10114 10115 10121 10128 10135 10140 10144 10146 10148 10155 10159 10162 10165 10168 10173 10178 10183 10189 10188 10188 10198 10203 10205 10207 10209 10211
9881 9884 9888 9891 9896 9902 9909 9915 9922 9930 9938 9946 9955 9964 9973 9982 9992 10001 10012 10022 10033 10043 10050 10060 10068 10075 10081 10089 10095 10099 10106 10110 10116 10123 10127 10129 10131 10137 10144 10149 10151 10156 10161 10165 10172 10175 10177 10183 10189 10193 10195 10198 10200 10203
9877 9881 9885 9889 9894 9899 9905 9910 9917 9925 9933 9941 9949 9957 9966 9975 9984 9992 10003 10013 10024 10031 10041 10049 10054 10064 10069 10076 10082 10087 10094 10098 10103 10109 10114 10118 10122 10126 10132 10137 10140 10145 10150 10156 10161 10163 10168 10174 10180 10183 10186 10189 10192 10195
9876 9879 9882 9887 9891 9896 9902 9908 9915 9922 9930 9937 9945 9953 9961 9969 9978 9988 9997 10006 10014 10022 10030 10038 10046 10052 10060 10067 10072 10078 10083 10089 10092 10098 10102 10109 10114 10117 10122 10126 10132 10137 10143 10146 10151 10156 10163 10169 10173 10175 10179 10182 10185 10189
9877 9881 9884 9888 9893 9898 9903 9909 9916 9922 9929 9935 9943 9950 9958 9967 9976 9984 9992 9999 10009 10017 10024 10032 10038 10046 10053 10057 10062 10068 10074 10078 10085 10091 10096 10100 10105 10109 10114 10120 10124 10131 10137 10142 10147 10152 10155 10160 10164 10168 10172 10176 10180 10183
9880 9884 9887 9891 9896 9901 9905 9912 9917 9923 9929 9935 9942 9950 9958 9966 9973 9981 9989 9998 10005 10011 10019 10025 10031 10038 10044 10051 10056 10062 10069 10074 10080 10084 10090 10095 10099 10104 10110 10114 10122 10128 10133 10137 10142 10146 10151 10155 10159 10163 10167 10171 10174 10178
9884 9887 9891 9895 9899 9903 9908 9914 9920 9925 9931 9936 9943 9949 9956 9963 9970 9978 9985 9993 10000 10007 10014 10021 10029 10035 10041 10046 10052 10058 10064 10070 10075 10080 10084 10089 10096 10102 10107 10114 10120 10124 10129 10133 10137 10141 10146 10150 10154 10158 10162 10165 10169 10172
9888 9891 9894 9899 9902 9907 9912 9917 9923 9928 9933 9939 9945 9952 9958 9964 9971 9979 9986 9992 9999 10006 10013 10021 10027 10033 10039 10045 10051 10056 10061 10066 10071 10077 10083 10089 10096 10102 10109 10114 10118 10122 10126 10130 10134 10138 10141 10145 10149 10152 10156 10159 10162 10164
9894 9897 9901 9905 9909 9913 9918 9922 9928 9933 9938 9943 9949 9955 9961 9967 9974 9980 9986 9993 9999 10006 10013 10020 10026 10032 10037 10043 10049 10054 10060 10066 10073 10079 10084 10090 10096 10101 10106 10110 10114 10118 10122 10126 10130 10133 10137 10140 10143 10146 10149 10152 10154 10155
9901 9904 9909 9913 9916 9920 9924 9929 9933 9937 9941 9946 9952 9958 9965 9970 9976 9982 9988 9994 10001 10008 10015 10021 10026 10031 10037 10043 10049 10056 10062 10068 10075 10080 10085 10090 10094 10098 10102 10106 10110 10114 10118 10121 10124 10127 10130 10134 10136 10139 10141 10143 10144 10146
9908 9912 9915 9919 9922 9926 9930 9934 9938 9942 9947 9952 9958 9963 9968 9974 9980 9985 9991 9998 10004 10009 10015 10022 10029 10036 10041 10047 10053 10059 10064 10070 10076 10081 10086 10089 10093 10097 10101 10104 10108 10111 10114 10116 10118 10121 10123 10125 10127 10129 10131 10133 10134 10135
9915 9918 9922 9925 9928 9931 9935 9940 9945 9949 9953 9956 9961 9968 9973 9979 9984 9989 9995 10000 10006 10013 10019 10025 10032 10037 10043 10049 10056 10061 10066 10072 10077 10081 10084 10087 10091 10094 10097 10100 10103 10105 10107 10109 10111 10112 10114 10116 10118 10119 10120 10122 10123 10124
9922 9925 9928 9931 9934 9938 9942 9946 9950 9954 9959 9963 9967 9971 9977 9983 9989 9994 9999 10005 10011 10016 10023 10029 10035 10042 10047 10053 10059 10064 10069 10073 10077 10080 10083 10086 10089 10091 10094 10096 10098 10099 10101 10102 10102 10103 10104 10106 10107 10108 10109 10111 10112 10112
9928 9931 9934 9938 9942 9946 9949 9952 9955 9959 9964 9967 9972 9977 9983 9989 9996 10002 10007 10012 10017 10023 10029 10035 10041 10046 10051 10056 10060 10065 10069 10073 10076 10079 10082 10084 10086 10088 10089 10090 10091 10092 10092 10092 10093 10093 10094 10095 10096 10097 10097 10098 10098 10099
9934 9937 9940 9944 9948 9951 9955 9958 9961 9964 9967 9973 9980 9985 9989 9995 10000 10005 10010 10016 10022 10027 10033 10038 10043 10048 10052 10056 10060 10065 10068 10071 10074 10077 10079 10081 10082 10083 10083 10083 10083 10084 10083 10083 10082 10083 10083 10083 10082 10082 10083 10084 10085 10086
9941 9944 9947 9950 9953 9957 9961 9964 9967 9971 9975 9981 9986 9991 9996 10000 10005 10010 10015 10020 10025 10030 10034 10039 10044 10049 10053 10058 10061 10065 10067 10069 10072 10073 10075 10076 10076 10077 10077 10077 10076 10075 10074 10073 10072 10072 10072 10071 10070 10070 10070 10071 10071 10072
9948 9950 9953 9957 9960 9964 9967 9971 9974 9978 9983 9988 9993 9997 10001 10006 10011 10016 10020 10025 10029 10034 10038 10042 10046 10050 10054 10058 10061 10063 10065 10067 10069 10070 10070 10070 10071 10071 10070 10069 10067 10065 10063 10061 10060 10059 10058 10058 10057 10057 10057 10058 10059 10060
9953 9956 9959 9962 9965 9968 9972 9975 9980 9985 9989 9994 9998 10002 10006 10011 10015 10019 10024 10029 10033 10036 10040 10043 10047 10050 10053 10056 10058 10061 10062 10064 10065 10065 10065 10065 10065 10064 10063 10061 10059 10056 10054 10051 10050 10048 10047 10047 10047 10047 10047 10048 10048 10049
9957 9961 9964 9967 9970 9973 9976 9981 9986 9989 9992 9997 10001 10006 10011 10015 10019 10022 10025 10029 10033 10036 10040 10043 10046 10048 10051 10053 10055 10057 10059 10060 10060 10060 10060 10059 10058 10057 10055 10053 10051 10049 10046 10043 10042 10040 10039 10038 10038 10038 10038 10039 10039 10040
9962 9964 9967 9971 9974 9977 9981 9985 9989 9992 9996 9999 10004 10009 10014 10018 10021 10024 10028 10031 10035 10037 10040 10042 10044 10047 10048 10050 10052 10054 10054 10055 10055 10055 10054 10052 10051 10049 10048 10046 10044 10042 10039 10036 10035 10034 10032 10031 10031 10031 10031 10031 10032 10033
9967 9968 9970 9974 9977 9981 9983 9986 9989 9993 9997 10002 10007 10011 10015 10019 10022 10025 10028 10031 10033 10035 10037 10040 10041 10043 10045 10047 10048 10049 10050 10050 10049 10049 10048 10046 10044 10042 10040 10038 10036 10034 10032 10029 10028 10027 10026 10025 10024 10024 10024 10024 10024 10025
9970 9972 9973 9975 9978 9982 9984 9987 9990 9995 10000 10005 10009 10011 10014 10017 10020 10023 10025 10028 10030 10032 10034 10036 10038 10040 10042 10043 10044 10044 10044 10044 10043 10042 10040 10039 10037 10035 10033 10031 10028 10026 10024 10023 10022 10021 10020 10019 10018 10018 10017 10017 10016 10016
9972 9974 9976 9978 9979 9982 9985 9988 9991 9995 9999 10002 10005 10008 10011 10014 10017 10020 10022 10024 10026 10028 10030 10032 10034 10035 10036 10037 10037 10038 10038 10037 10036 10035 10033 10032 10030 10028 10025 10023 10022 10019 10017 10015 10014 10014 10014 10013 10011 10011 10010 10010 10009 10009
9973 9974 9976 9978 9981 9983 9985 9987 9990 9993 9996 9999 10002 10005 10008 10011 10014 10016 10018 10020 10022 10024 10025 10026 10028 10029 10030 10030 10030 10030 10030 10029 10028 10027 10026 10024 10022 10020 10018 10016 10015 10013 10011 10008 10007 10006 10006 10005 10005 10004 10003 10003 10002 10001
9973 9974 9976 9977 9979 9981 9983 9986 9988 9990 9994 9996 9999 10001 10003 10006 10008 10010 10012 10014 10016 10017 10019 10020 10020 10021 10022 10022 10022 10021 10021 10021 10020 10018 10016 10015 10013 10011 10010 10008 10006 10005 10004 10002 10000 9999 9998 9998 9997 9996 9996 9995 9994 9993
9971 9973 9974 9975 9976 9978 9980 9982 9984 9987 9989 9991 9993 9996 9998 10000 10002 10003 10005 10007 10008 10009 10010 10011 10011 10012 10013 10013 10013 10013 10012 10011 10010 10008 10006 10004 10003 10002 10000 9999 9997 9996 9994 9994 9993 9991 9990 9989 9989 9988 9988 9987 9985 9985
9970 9971 9971 9972 9973 9975 9976 9978 9979 9981 9982 9984 9987 9989 9990 9992 9993 9995 9997 9998 9999 10000 10001 10001 10002 10003 10003 10003 10003 10003 10002 10001 9999 9998 9996 9994 9992 9991 9990 9989 9987 9986 9985 9984 9984 9983 9981 9980 9980 9979 9979 9978 9977 9976
9967 9967 9968 9968 9969 9970 9971 9973 9974 9975 9977 9978 9980 9981 9983 9984 9986 9988 9989 9989 9990 9991 9992 9992 9993 9993 9993 9992 9992 9991 9989 9988 9987 9987 9985 9984 9982 9980 9980 9979 9978 9977 9976 9975 9974 9974 9972 9971 9970 9970 9969 9968 9967 9966
9965 9964 9964 9964 9964 9965 9966 9967 9968 9969 9970 9971 9972 9973 9974 9976 9977 9979 9979 9980 9981 9981 9981 9981 9981 9982 9981 9980 9979 9978 9977 9977 9976 9975 9974 9973 9972 9971 9970 9970 9969 9968 9967 9966 9965 9964 9963 9963 9962 9961 9960 9959 9958 9956
9961 9960 9959 9959 9959 9959 9960 9960 9961 9962 9963 9963 9964 9965 9966 9966 9967 9968 9968 9969 9969 9969 9970 9970 9969 9969 9968 9968 9967 9967 9967 9966 9966 9966 9965 9963 9962 9962 9961 9960 9960 9959 9958 9957 9957 9956 9955 9954 9953 9952 9951 9950 9949 9947
9957 9956 9955 9954 9954 9953 9953 9954 9954 9954 9955 9955 9955 9955 9956 9956 9957 9957 9957 9958 9958 9958 9959 9959 9958 9958 9957 9957 9957 9957 9957 9957 9957 9957 9955 9954 9954 9954 9953 9952 9951 9950 9950 9949 9949 9948 9947 9946 9945 9944 9943 9942 9940 9938
9953 9951 9949 9948 9948 9947 9947 9947 9947 9948 9948 9948 9948 9948 9948 9948 9948 9948 9948 9949 9949 9949 9949 9949 9949 9949 9949 9949 9949 9948 9948 9948 9947 9947 9946 9946 9945 9945 9944 9944 9943 9942 9941 9941 9940 9940 9939 9938 9937 9936 9934 9933 9931 9929
9947 9946 9944 9943 9942 9941 9941 9940 9939 9939 9939 9940 9940 9940 9939 9939 9939 9939 9940 9939 9939 9939 9939 9939 9940 9940 9940 9939 9939 9939 9938 9938 9938 9937 9937 9937 9936 9936 9935 9935 9934 9933 9933 9932 9932 9931 9930 9929 9928 9927 9925 9923 9922 9920